owner,sensor,date,latitude,longitude,vertical_datum,wind_speed,wind_to_direction,wind_speed_of_gust,qcFlag 
TCOON,ioos:station:TCOON:005:1,2009-07-01T00:00:00Z,27.6346,-97.2370,0.0,5.8,113.0,6.8,'11111222,11111222,11111222' 
TCOON,ioos:station:TCOON:005:1,2009-07-01T01:00:00Z,27.6346,-97.2370,0.0,4.8,126.0,5.6,'11111222,11111222,11111222' 
TCOON,ioos:station:TCOON:005:1,2009-07-01T03:00:00Z,27.6346,-97.2370,0.0,4.5,132.0,5.6,'11111222,11111222,11111222' 
TCOON,ioos:station:TCOON:005:1,2009-07-01T04:00:00Z,27.6346,-97.2370,0.0,3.9,145.0,5.2,'11111222,11111222,11111222' 
TCOON,ioos:station:TCOON:005:1,2009-07-01T05:00:00Z,27.6346,-97.2370,0.0,3.9,138.0,4.9,'11111222,11111222,11111222' 
TCOON,ioos:station:TCOON:005:1,2009-07-01T06:00:00Z,27.6346,-97.2370,0.0,3.0,154.0,4.1,'11111222,11111222,11111222' 
TCOON,ioos:station:TCOON:005:1,2009-07-01T07:00:00Z,27.6346,-97.2370,0.0,2.3,165.0,2.8,'11111222,11111222,11111222' 
TCOON,ioos:station:TCOON:005:1,2009-07-01T08:00:00Z,27.6346,-97.2370,0.0,2.5,184.0,3.0,'11111222,11111222,11111222' 
TCOON,ioos:station:TCOON:005:1,2009-07-01T09:00:00Z,27.6346,-97.2370,0.0,2.2,173.0,2.7,'11111222,11111222,11111222' 
TCOON,ioos:station:TCOON:005:1,2009-07-01T10:00:00Z,27.6346,-97.2370,0.0,2.2,184.0,2.7,'11111222,11111222,11111222' 
TCOON,ioos:station:TCOON:005:1,2009-07-01T11:00:00Z,27.6346,-97.2370,0.0,2.7,193.0,3.2,'11111222,11111222,11111222' 
TCOON,ioos:station:TCOON:005:1,2009-07-01T12:00:00Z,27.6346,-97.2370,0.0,2.2,193.0,2.8,'11111222,11111222,11111222' 
TCOON,ioos:station:TCOON:005:1,2009-07-01T13:00:00Z,27.6346,-97.2370,0.0,1.4,177.0,1.7,'11111222,11111222,11111222' 
TCOON,ioos:station:TCOON:005:1,2009-07-01T14:00:00Z,27.6346,-97.2370,0.0,1.6,175.0,1.9,'11111222,11111222,11111222' 
TCOON,ioos:station:TCOON:005:1,2009-07-01T15:00:00Z,27.6346,-97.2370,0.0,1.4,146.0,1.9,'11111222,11111222,11111222' 
TCOON,ioos:station:TCOON:005:1,2009-07-01T16:00:00Z,27.6346,-97.2370,0.0,1.8,154.0,2.6,'11111222,11111222,11111222' 
TCOON,ioos:station:TCOON:005:1,2009-07-01T17:00:00Z,27.6346,-97.2370,0.0,2.7,167.0,4.0,'11111222,11111222,11111222' 
TCOON,ioos:station:TCOON:005:1,2009-07-01T18:00:00Z,27.6346,-97.2370,0.0,4.5,96.0,5.6,'11111222,11111222,11111222' 
TCOON,ioos:station:TCOON:005:1,2009-07-01T19:00:00Z,27.6346,-97.2370,0.0,5.8,101.0,7.3,'11111222,11111222,11111222' 
TCOON,ioos:station:TCOON:005:1,2009-07-01T20:00:00Z,27.6346,-97.2370,0.0,6.5,100.0,7.9,'11111222,11111222,11111222' 
TCOON,ioos:station:TCOON:005:1,2009-07-01T21:00:00Z,27.6346,-97.2370,0.0,7.5,94.0,8.3,'11111222,11111222,11111222' 
TCOON,ioos:station:TCOON:005:1,2009-07-01T22:00:00Z,27.6346,-97.2370,0.0,7.8,102.0,10.0,'11111222,11111222,11111222' 
TCOON,ioos:station:TCOON:005:1,2009-07-01T23:00:00Z,27.6346,-97.2370,0.0,8.0,112.0,9.2,'11111222,11111222,11111222' 
TCOON,ioos:station:TCOON:005:1,2009-07-02T00:00:00Z,27.6346,-97.2370,0.0,7.0,120.0,8.3,'11111222,11111222,11111222' 
TCOON,ioos:station:TCOON:005:1,2009-07-02T01:00:00Z,27.6346,-97.2370,0.0,6.0,124.0,7.6,'11111222,11111222,11111222' 
TCOON,ioos:station:TCOON:005:1,2009-07-02T02:00:00Z,27.6346,-97.2370,0.0,5.0,133.0,6.3,'11111222,11111222,11111222' 
TCOON,ioos:station:TCOON:005:1,2009-07-02T03:00:00Z,27.6346,-97.2370,0.0,4.9,138.0,6.9,'11111222,11111222,11111222' 
TCOON,ioos:station:TCOON:005:1,2009-07-02T04:00:00Z,27.6346,-97.2370,0.0,3.6,136.0,4.4,'11111222,11111222,11111222' 
TCOON,ioos:station:TCOON:005:1,2009-07-02T05:00:00Z,27.6346,-97.2370,0.0,3.9,142.0,5.6,'11111222,11111222,11111222' 
TCOON,ioos:station:TCOON:005:1,2009-07-02T06:00:00Z,27.6346,-97.2370,0.0,2.4,157.0,3.1,'11111222,11111222,11111222' 
TCOON,ioos:station:TCOON:005:1,2009-07-02T07:00:00Z,27.6346,-97.2370,0.0,1.9,178.0,2.4,'11111222,11111222,11111222' 
TCOON,ioos:station:TCOON:005:1,2009-07-02T08:00:00Z,27.6346,-97.2370,0.0,2.5,173.0,3.2,'11111222,11111222,11111222' 
TCOON,ioos:station:TCOON:005:1,2009-07-02T09:00:00Z,27.6346,-97.2370,0.0,2.3,176.0,2.6,'11111222,11111222,11111222' 
TCOON,ioos:station:TCOON:005:1,2009-07-02T10:00:00Z,27.6346,-97.2370,0.0,2.3,185.0,2.8,'11111222,11111222,11111222' 
TCOON,ioos:station:TCOON:005:1,2009-07-02T11:00:00Z,27.6346,-97.2370,0.0,0.7,191.0,1.0,'11111222,11111222,11111222' 
TCOON,ioos:station:TCOON:005:1,2009-07-02T12:00:00Z,27.6346,-97.2370,0.0,0.8,109.0,1.0,'11111222,11111222,11111222' 
TCOON,ioos:station:TCOON:005:1,2009-07-02T13:00:00Z,27.6346,-97.2370,0.0,0.2,357.0,0.6,'11111222,11111222,11111222' 
TCOON,ioos:station:TCOON:005:1,2009-07-02T14:00:00Z,27.6346,-97.2370,0.0,2.0,332.0,2.4,'11111222,11111222,11111222' 
TCOON,ioos:station:TCOON:005:1,2009-07-02T15:00:00Z,27.6346,-97.2370,0.0,1.9,354.0,2.4,'11111222,11111222,11111222' 
TCOON,ioos:station:TCOON:005:1,2009-07-02T16:00:00Z,27.6346,-97.2370,0.0,3.4,100.0,4.2,'11111222,11111222,11111222' 
TCOON,ioos:station:TCOON:005:1,2009-07-02T17:00:00Z,27.6346,-97.2370,0.0,4.6,89.0,5.4,'11111222,11111222,11111222' 
TCOON,ioos:station:TCOON:005:1,2009-07-02T18:00:00Z,27.6346,-97.2370,0.0,5.5,84.0,6.1,'11111222,11111222,11111222' 
TCOON,ioos:station:TCOON:005:1,2009-07-02T19:00:00Z,27.6346,-97.2370,0.0,5.2,85.0,6.4,'11111222,11111222,11111222' 
TCOON,ioos:station:TCOON:005:1,2009-07-02T20:00:00Z,27.6346,-97.2370,0.0,7.0,96.0,9.0,'11111222,11111222,11111222' 
TCOON,ioos:station:TCOON:005:1,2009-07-02T21:00:00Z,27.6346,-97.2370,0.0,7.8,100.0,9.8,'11111222,11111222,11111222' 
TCOON,ioos:station:TCOON:005:1,2009-07-02T22:00:00Z,27.6346,-97.2370,0.0,8.0,98.0,22.2,'11111222,11111222,11111222' 
TCOON,ioos:station:TCOON:005:1,2009-07-02T23:00:00Z,27.6346,-97.2370,0.0,7.2,98.0,8.2,'11111222,11111222,11111222' 
TCOON,ioos:station:TCOON:005:1,2009-07-03T00:00:00Z,27.6346,-97.2370,0.0,5.3,113.0,6.9,'11111222,11111222,11111222' 
TCOON,ioos:station:TCOON:005:1,2009-07-03T01:00:00Z,27.6346,-97.2370,0.0,5.3,128.0,7.2,'11111222,11111222,11111222' 
TCOON,ioos:station:TCOON:005:1,2009-07-03T02:00:00Z,27.6346,-97.2370,0.0,4.3,119.0,5.3,'11111222,11111222,11111222' 
TCOON,ioos:station:TCOON:005:1,2009-07-03T03:00:00Z,27.6346,-97.2370,0.0,3.0,135.0,3.9,'11111222,11111222,11111222' 
TCOON,ioos:station:TCOON:005:1,2009-07-03T04:00:00Z,27.6346,-97.2370,0.0,3.8,132.0,4.2,'11111222,11111222,11111222' 
TCOON,ioos:station:TCOON:005:1,2009-07-03T05:00:00Z,27.6346,-97.2370,0.0,3.9,125.0,4.8,'11111222,11111222,11111222' 
TCOON,ioos:station:TCOON:005:1,2009-07-03T06:00:00Z,27.6346,-97.2370,0.0,2.9,124.0,3.6,'11111222,11111222,11111222' 
TCOON,ioos:station:TCOON:005:1,2009-07-03T07:00:00Z,27.6346,-97.2370,0.0,2.9,156.0,3.9,'11111222,11111222,11111222' 
TCOON,ioos:station:TCOON:005:1,2009-07-03T08:00:00Z,27.6346,-97.2370,0.0,2.6,169.0,3.1,'11111222,11111222,11111222' 
TCOON,ioos:station:TCOON:005:1,2009-07-03T09:00:00Z,27.6346,-97.2370,0.0,1.9,176.0,2.9,'11111222,11111222,11111222' 
TCOON,ioos:station:TCOON:005:1,2009-07-03T10:00:00Z,27.6346,-97.2370,0.0,1.3,172.0,1.7,'11111222,11111222,11111222' 
TCOON,ioos:station:TCOON:005:1,2009-07-03T11:00:00Z,27.6346,-97.2370,0.0,1.2,144.0,1.5,'11111222,11111222,11111222' 
TCOON,ioos:station:TCOON:005:1,2009-07-03T12:00:00Z,27.6346,-97.2370,0.0,1.2,137.0,1.4,'11111222,11111222,11111222' 
TCOON,ioos:station:TCOON:005:1,2009-07-03T13:00:00Z,27.6346,-97.2370,0.0,2.0,173.0,2.7,'11111222,11111222,11111222' 
TCOON,ioos:station:TCOON:005:1,2009-07-03T14:00:00Z,27.6346,-97.2370,0.0,3.1,166.0,4.7,'11111222,11111222,11111222' 
TCOON,ioos:station:TCOON:005:1,2009-07-03T15:00:00Z,27.6346,-97.2370,0.0,3.3,177.0,5.4,'11111222,11111222,11111222' 
TCOON,ioos:station:TCOON:005:1,2009-07-03T16:00:00Z,27.6346,-97.2370,0.0,5.6,142.0,7.4,'11111222,11111222,11111222' 
TCOON,ioos:station:TCOON:005:1,2009-07-03T17:00:00Z,27.6346,-97.2370,0.0,6.8,119.0,7.8,'11111222,11111222,11111222' 
TCOON,ioos:station:TCOON:005:1,2009-07-03T18:00:00Z,27.6346,-97.2370,0.0,6.7,116.0,7.7,'11111222,11111222,11111222' 
TCOON,ioos:station:TCOON:005:1,2009-07-03T19:00:00Z,27.6346,-97.2370,0.0,7.6,97.0,8.7,'11111222,11111222,11111222' 
TCOON,ioos:station:TCOON:005:1,2009-07-03T20:00:00Z,27.6346,-97.2370,0.0,6.5,133.0,8.0,'11111222,11111222,11111222' 
TCOON,ioos:station:TCOON:005:1,2009-07-03T21:00:00Z,27.6346,-97.2370,0.0,6.3,126.0,7.4,'11111222,11111222,11111222' 
TCOON,ioos:station:TCOON:005:1,2009-07-03T22:00:00Z,27.6346,-97.2370,0.0,7.5,109.0,8.3,'11111222,11111222,11111222' 
TCOON,ioos:station:TCOON:005:1,2009-07-03T23:00:00Z,27.6346,-97.2370,0.0,6.8,123.0,8.8,'11111222,11111222,11111222' 
TCOON,ioos:station:TCOON:005:1,2009-07-04T00:00:00Z,27.6346,-97.2370,0.0,6.6,131.0,8.7,'11111222,11111222,11111222' 
TCOON,ioos:station:TCOON:005:1,2009-07-04T01:00:00Z,27.6346,-97.2370,0.0,7.4,123.0,9.6,'11111222,11111222,11111222' 
TCOON,ioos:station:TCOON:005:1,2009-07-04T02:00:00Z,27.6346,-97.2370,0.0,6.7,127.0,8.0,'11111222,11111222,11111222' 
TCOON,ioos:station:TCOON:005:1,2009-07-04T03:00:00Z,27.6346,-97.2370,0.0,5.0,141.0,7.3,'11111222,11111222,11111222' 
TCOON,ioos:station:TCOON:005:1,2009-07-04T04:00:00Z,27.6346,-97.2370,0.0,4.0,144.0,5.3,'11111222,11111222,11111222' 
TCOON,ioos:station:TCOON:005:1,2009-07-04T05:00:00Z,27.6346,-97.2370,0.0,4.0,158.0,5.3,'11111222,11111222,11111222' 
TCOON,ioos:station:TCOON:005:1,2009-07-04T06:00:00Z,27.6346,-97.2370,0.0,4.6,154.0,6.2,'11111222,11111222,11111222' 
TCOON,ioos:station:TCOON:005:1,2009-07-04T07:00:00Z,27.6346,-97.2370,0.0,3.8,164.0,4.9,'11111222,11111222,11111222' 
TCOON,ioos:station:TCOON:005:1,2009-07-04T08:00:00Z,27.6346,-97.2370,0.0,5.3,156.0,7.1,'11111222,11111222,11111222' 
TCOON,ioos:station:TCOON:005:1,2009-07-04T09:00:00Z,27.6346,-97.2370,0.0,4.5,161.0,6.6,'11111222,11111222,11111222' 
TCOON,ioos:station:TCOON:005:1,2009-07-04T10:00:00Z,27.6346,-97.2370,0.0,3.7,166.0,5.0,'11111222,11111222,11111222' 
TCOON,ioos:station:TCOON:005:1,2009-07-04T11:00:00Z,27.6346,-97.2370,0.0,3.8,171.0,5.5,'11111222,11111222,11111222' 
TCOON,ioos:station:TCOON:005:1,2009-07-04T12:00:00Z,27.6346,-97.2370,0.0,4.7,172.0,6.0,'11111222,11111222,11111222' 
TCOON,ioos:station:TCOON:005:1,2009-07-04T13:00:00Z,27.6346,-97.2370,0.0,4.2,176.0,6.2,'11111222,11111222,11111222' 
TCOON,ioos:station:TCOON:005:1,2009-07-04T14:00:00Z,27.6346,-97.2370,0.0,6.2,176.0,12.5,'11111222,11111222,11111222' 
TCOON,ioos:station:TCOON:005:1,2009-07-04T15:00:00Z,27.6346,-97.2370,0.0,6.6,179.0,99.0,'11111222,11111222,11144222' 
TCOON,ioos:station:TCOON:005:1,2009-07-04T16:00:00Z,27.6346,-97.2370,0.0,5.5,169.0,8.2,'11111222,11111222,11111222' 
TCOON,ioos:station:TCOON:005:1,2009-07-04T17:00:00Z,27.6346,-97.2370,0.0,5.2,150.0,8.5,'11111222,11111222,11111222' 
TCOON,ioos:station:TCOON:005:1,2009-07-04T18:00:00Z,27.6346,-97.2370,0.0,7.4,138.0,9.0,'11111222,11111222,11111222' 
TCOON,ioos:station:TCOON:005:1,2009-07-04T19:00:00Z,27.6346,-97.2370,0.0,7.0,146.0,9.3,'11111222,11111222,11111222' 
TCOON,ioos:station:TCOON:005:1,2009-07-04T20:00:00Z,27.6346,-97.2370,0.0,6.9,134.0,8.6,'11111222,11111222,11111222' 
TCOON,ioos:station:TCOON:005:1,2009-07-04T21:00:00Z,27.6346,-97.2370,0.0,8.1,123.0,9.9,'11111222,11111222,11111222' 
TCOON,ioos:station:TCOON:005:1,2009-07-04T22:00:00Z,27.6346,-97.2370,0.0,10.0,132.0,12.2,'11111222,11111222,11111222' 
TCOON,ioos:station:TCOON:005:1,2009-07-05T00:00:00Z,27.6346,-97.2370,0.0,9.1,141.0,13.4,'11111222,11111222,11111222' 
TCOON,ioos:station:TCOON:005:1,2009-07-05T01:00:00Z,27.6346,-97.2370,0.0,6.5,142.0,9.0,'11111222,11111222,11111222' 
TCOON,ioos:station:TCOON:005:1,2009-07-05T02:00:00Z,27.6346,-97.2370,0.0,7.3,151.0,10.2,'11111222,11111222,11111222' 
TCOON,ioos:station:TCOON:005:1,2009-07-05T03:00:00Z,27.6346,-97.2370,0.0,6.8,155.0,9.3,'11111222,11111222,11111222' 
TCOON,ioos:station:TCOON:005:1,2009-07-05T04:00:00Z,27.6346,-97.2370,0.0,5.5,159.0,7.4,'11111222,11111222,11111222' 
TCOON,ioos:station:TCOON:005:1,2009-07-05T05:00:00Z,27.6346,-97.2370,0.0,5.2,156.0,6.7,'11111222,11111222,11111222' 
TCOON,ioos:station:TCOON:005:1,2009-07-05T06:00:00Z,27.6346,-97.2370,0.0,5.6,166.0,7.9,'11111222,11111222,11111222' 
TCOON,ioos:station:TCOON:005:1,2009-07-05T07:00:00Z,27.6346,-97.2370,0.0,4.6,170.0,6.6,'11111222,11111222,11111222' 
TCOON,ioos:station:TCOON:005:1,2009-07-05T08:00:00Z,27.6346,-97.2370,0.0,5.1,170.0,6.8,'11111222,11111222,11111222' 
TCOON,ioos:station:TCOON:005:1,2009-07-05T09:00:00Z,27.6346,-97.2370,0.0,7.3,165.0,9.7,'11111222,11111222,11111222' 
TCOON,ioos:station:TCOON:005:1,2009-07-05T10:00:00Z,27.6346,-97.2370,0.0,8.1,172.0,11.2,'11111222,11111222,11111222' 
TCOON,ioos:station:TCOON:005:1,2009-07-05T11:00:00Z,27.6346,-97.2370,0.0,6.5,175.0,9.2,'11111222,11111222,11111222' 
TCOON,ioos:station:TCOON:005:1,2009-07-05T12:00:00Z,27.6346,-97.2370,0.0,6.4,174.0,9.0,'11111222,11111222,11111222' 
TCOON,ioos:station:TCOON:005:1,2009-07-05T13:00:00Z,27.6346,-97.2370,0.0,6.2,174.0,7.9,'11111222,11111222,11111222' 
TCOON,ioos:station:TCOON:005:1,2009-07-05T14:00:00Z,27.6346,-97.2370,0.0,7.7,181.0,11.9,'11111222,11111222,11111222' 
TCOON,ioos:station:TCOON:005:1,2009-07-05T15:00:00Z,27.6346,-97.2370,0.0,6.2,176.0,8.3,'11111222,11111222,11111222' 
TCOON,ioos:station:TCOON:005:1,2009-07-05T16:00:00Z,27.6346,-97.2370,0.0,7.0,168.0,11.3,'11111222,11111222,11111222' 
TCOON,ioos:station:TCOON:005:1,2009-07-05T17:00:00Z,27.6346,-97.2370,0.0,7.6,167.0,10.0,'11111222,11111222,11111222' 
TCOON,ioos:station:TCOON:005:1,2009-07-05T18:00:00Z,27.6346,-97.2370,0.0,7.0,155.0,10.1,'11111222,11111222,11111222' 
TCOON,ioos:station:TCOON:005:1,2009-07-05T19:00:00Z,27.6346,-97.2370,0.0,9.5,143.0,11.9,'11111222,11111222,11111222' 
TCOON,ioos:station:TCOON:005:1,2009-07-05T20:00:00Z,27.6346,-97.2370,0.0,10.2,152.0,12.9,'11111222,11111222,11111222' 
TCOON,ioos:station:TCOON:005:1,2009-07-05T21:00:00Z,27.6346,-97.2370,0.0,8.8,156.0,12.4,'11111222,11111222,11111222' 
TCOON,ioos:station:TCOON:005:1,2009-07-05T22:00:00Z,27.6346,-97.2370,0.0,9.9,148.0,13.5,'11111222,11111222,11111222' 
TCOON,ioos:station:TCOON:005:1,2009-07-05T23:00:00Z,27.6346,-97.2370,0.0,8.2,145.0,14.7,'11111222,11111222,11111222' 
TCOON,ioos:station:TCOON:005:1,2009-07-06T00:00:00Z,27.6346,-97.2370,0.0,8.0,148.0,12.0,'11111222,11111222,11111222' 
TCOON,ioos:station:TCOON:005:1,2009-07-06T01:00:00Z,27.6346,-97.2370,0.0,6.9,156.0,9.7,'11111222,11111222,11111222' 
TCOON,ioos:station:TCOON:005:1,2009-07-06T02:00:00Z,27.6346,-97.2370,0.0,4.2,145.0,5.5,'11111222,11111222,11111222' 
TCOON,ioos:station:TCOON:005:1,2009-07-06T03:00:00Z,27.6346,-97.2370,0.0,4.9,152.0,6.9,'11111222,11111222,11111222' 
TCOON,ioos:station:TCOON:005:1,2009-07-06T04:00:00Z,27.6346,-97.2370,0.0,3.4,144.0,4.8,'11111222,11111222,11111222' 
TCOON,ioos:station:TCOON:005:1,2009-07-06T05:00:00Z,27.6346,-97.2370,0.0,3.8,137.0,4.8,'11111222,11111222,11111222' 
TCOON,ioos:station:TCOON:005:1,2009-07-06T06:00:00Z,27.6346,-97.2370,0.0,3.1,147.0,4.3,'11111222,11111222,11111222' 
TCOON,ioos:station:TCOON:005:1,2009-07-06T07:00:00Z,27.6346,-97.2370,0.0,5.3,156.0,7.4,'11111222,11111222,11111222' 
TCOON,ioos:station:TCOON:005:1,2009-07-06T08:00:00Z,27.6346,-97.2370,0.0,5.4,169.0,7.4,'11111222,11111222,11111222' 
TCOON,ioos:station:TCOON:005:1,2009-07-06T09:00:00Z,27.6346,-97.2370,0.0,5.4,169.0,7.5,'11111222,11111222,11111222' 
TCOON,ioos:station:TCOON:005:1,2009-07-06T10:00:00Z,27.6346,-97.2370,0.0,5.8,165.0,7.7,'11111222,11111222,11111222' 
TCOON,ioos:station:TCOON:005:1,2009-07-06T11:00:00Z,27.6346,-97.2370,0.0,4.4,169.0,6.4,'11111222,11111222,11111222' 
TCOON,ioos:station:TCOON:005:1,2009-07-06T12:00:00Z,27.6346,-97.2370,0.0,5.6,166.0,7.0,'11111222,11111222,11111222' 
TCOON,ioos:station:TCOON:005:1,2009-07-06T13:00:00Z,27.6346,-97.2370,0.0,6.4,167.0,8.1,'11111222,11111222,11111222' 
TCOON,ioos:station:TCOON:005:1,2009-07-06T14:00:00Z,27.6346,-97.2370,0.0,5.9,157.0,7.9,'11111222,11111222,11111222' 
TCOON,ioos:station:TCOON:005:1,2009-07-06T15:00:00Z,27.6346,-97.2370,0.0,5.2,165.0,7.9,'11111222,11111222,11111222' 
TCOON,ioos:station:TCOON:005:1,2009-07-06T16:00:00Z,27.6346,-97.2370,0.0,7.8,167.0,10.6,'11111222,11111222,11111222' 
TCOON,ioos:station:TCOON:005:1,2009-07-06T17:00:00Z,27.6346,-97.2370,0.0,7.8,155.0,10.5,'11111222,11111222,11111222' 
TCOON,ioos:station:TCOON:005:1,2009-07-06T18:00:00Z,27.6346,-97.2370,0.0,7.2,151.0,9.6,'11111222,11111222,11111222' 
TCOON,ioos:station:TCOON:005:1,2009-07-06T19:00:00Z,27.6346,-97.2370,0.0,6.7,141.0,9.2,'11111222,11111222,11111222' 
TCOON,ioos:station:TCOON:005:1,2009-07-06T20:00:00Z,27.6346,-97.2370,0.0,7.6,138.0,10.2,'11111222,11111222,11111222' 
TCOON,ioos:station:TCOON:005:1,2009-07-06T21:00:00Z,27.6346,-97.2370,0.0,8.1,128.0,10.8,'11111222,11111222,11111222' 
TCOON,ioos:station:TCOON:005:1,2009-07-06T22:00:00Z,27.6346,-97.2370,0.0,7.8,137.0,11.3,'11111222,11111222,11111222' 
TCOON,ioos:station:TCOON:005:1,2009-07-06T23:00:00Z,27.6346,-97.2370,0.0,7.4,124.0,9.1,'11111222,11111222,11111222' 
TCOON,ioos:station:TCOON:005:1,2009-07-07T00:00:00Z,27.6346,-97.2370,0.0,7.9,134.0,10.1,'11111222,11111222,11111222' 
TCOON,ioos:station:TCOON:005:1,2009-07-07T01:00:00Z,27.6346,-97.2370,0.0,6.9,140.0,8.6,'11111222,11111222,11111222' 
TCOON,ioos:station:TCOON:005:1,2009-07-07T02:00:00Z,27.6346,-97.2370,0.0,5.6,143.0,7.0,'11111222,11111222,11111222' 
TCOON,ioos:station:TCOON:005:1,2009-07-07T03:00:00Z,27.6346,-97.2370,0.0,5.8,155.0,7.6,'11111222,11111222,11111222' 
TCOON,ioos:station:TCOON:005:1,2009-07-07T04:00:00Z,27.6346,-97.2370,0.0,4.9,157.0,6.6,'11111222,11111222,11111222' 
TCOON,ioos:station:TCOON:005:1,2009-07-07T05:00:00Z,27.6346,-97.2370,0.0,5.5,164.0,7.3,'11111222,11111222,11111222' 
TCOON,ioos:station:TCOON:005:1,2009-07-07T06:00:00Z,27.6346,-97.2370,0.0,4.8,174.0,6.9,'11111222,11111222,11111222' 
TCOON,ioos:station:TCOON:005:1,2009-07-07T07:00:00Z,27.6346,-97.2370,0.0,4.7,173.0,5.8,'11111222,11111222,11111222' 
TCOON,ioos:station:TCOON:005:1,2009-07-07T08:00:00Z,27.6346,-97.2370,0.0,4.3,165.0,5.4,'11111222,11111222,11111222' 
TCOON,ioos:station:TCOON:005:1,2009-07-07T09:00:00Z,27.6346,-97.2370,0.0,4.3,168.0,5.9,'11111222,11111222,11111222' 
TCOON,ioos:station:TCOON:005:1,2009-07-07T10:00:00Z,27.6346,-97.2370,0.0,4.3,163.0,5.8,'11111222,11111222,11111222' 
TCOON,ioos:station:TCOON:005:1,2009-07-07T11:00:00Z,27.6346,-97.2370,0.0,4.0,159.0,5.5,'11111222,11111222,11111222' 
TCOON,ioos:station:TCOON:005:1,2009-07-07T12:00:00Z,27.6346,-97.2370,0.0,3.8,159.0,5.2,'11111222,11111222,11111222' 
TCOON,ioos:station:TCOON:005:1,2009-07-07T13:00:00Z,27.6346,-97.2370,0.0,4.3,170.0,6.5,'11111222,11111222,11111222' 
TCOON,ioos:station:TCOON:005:1,2009-07-07T14:00:00Z,27.6346,-97.2370,0.0,2.0,333.0,2.5,'11111222,11111222,11111222' 
TCOON,ioos:station:TCOON:005:1,2009-07-07T15:00:00Z,27.6346,-97.2370,0.0,3.3,138.0,5.8,'11111222,11111222,11111222' 
TCOON,ioos:station:TCOON:005:1,2009-07-07T16:00:00Z,27.6346,-97.2370,0.0,4.9,143.0,6.6,'11111222,11111222,11111222' 
TCOON,ioos:station:TCOON:005:1,2009-07-07T17:00:00Z,27.6346,-97.2370,0.0,5.8,151.0,8.3,'11111222,11111222,11111222' 
TCOON,ioos:station:TCOON:005:1,2009-07-07T18:00:00Z,27.6346,-97.2370,0.0,4.7,142.0,6.0,'11111222,11111222,11111222' 
TCOON,ioos:station:TCOON:005:1,2009-07-07T19:00:00Z,27.6346,-97.2370,0.0,7.5,135.0,9.5,'11111222,11111222,11111222' 
TCOON,ioos:station:TCOON:005:1,2009-07-07T20:00:00Z,27.6346,-97.2370,0.0,6.1,140.0,7.5,'11111222,11111222,11111222' 
TCOON,ioos:station:TCOON:005:1,2009-07-07T21:00:00Z,27.6346,-97.2370,0.0,8.2,133.0,10.2,'11111222,11111222,11111222' 
TCOON,ioos:station:TCOON:005:1,2009-07-07T22:00:00Z,27.6346,-97.2370,0.0,8.5,131.0,10.1,'11111222,11111222,11111222' 
TCOON,ioos:station:TCOON:005:1,2009-07-07T23:00:00Z,27.6346,-97.2370,0.0,8.0,136.0,10.3,'11111222,11111222,11111222' 
TCOON,ioos:station:TCOON:005:1,2009-07-08T00:00:00Z,27.6346,-97.2370,0.0,4.2,136.0,5.4,'11111222,11111222,11111222' 
TCOON,ioos:station:TCOON:005:1,2009-07-08T01:00:00Z,27.6346,-97.2370,0.0,4.0,111.0,4.7,'11111222,11111222,11111222' 
TCOON,ioos:station:TCOON:005:1,2009-07-08T02:00:00Z,27.6346,-97.2370,0.0,4.4,143.0,6.0,'11111222,11111222,11111222' 
TCOON,ioos:station:TCOON:005:1,2009-07-08T03:00:00Z,27.6346,-97.2370,0.0,4.6,150.0,5.7,'11111222,11111222,11111222' 
TCOON,ioos:station:TCOON:005:1,2009-07-08T04:00:00Z,27.6346,-97.2370,0.0,4.4,154.0,5.4,'11111222,11111222,11111222' 
TCOON,ioos:station:TCOON:005:1,2009-07-08T05:00:00Z,27.6346,-97.2370,0.0,4.6,155.0,6.3,'11111222,11111222,11111222' 
TCOON,ioos:station:TCOON:005:1,2009-07-08T06:00:00Z,27.6346,-97.2370,0.0,5.3,167.0,7.8,'11111222,11111222,11111222' 
TCOON,ioos:station:TCOON:005:1,2009-07-08T07:00:00Z,27.6346,-97.2370,0.0,5.4,166.0,6.7,'11111222,11111222,11111222' 
TCOON,ioos:station:TCOON:005:1,2009-07-08T08:00:00Z,27.6346,-97.2370,0.0,4.6,163.0,6.9,'11111222,11111222,11111222' 
TCOON,ioos:station:TCOON:005:1,2009-07-08T09:00:00Z,27.6346,-97.2370,0.0,4.0,155.0,5.0,'11111222,11111222,11111222' 
TCOON,ioos:station:TCOON:005:1,2009-07-08T10:00:00Z,27.6346,-97.2370,0.0,4.3,158.0,6.1,'11111222,11111222,11111222' 
TCOON,ioos:station:TCOON:005:1,2009-07-08T11:00:00Z,27.6346,-97.2370,0.0,4.0,161.0,6.2,'11111222,11111222,11111222' 
TCOON,ioos:station:TCOON:005:1,2009-07-08T12:00:00Z,27.6346,-97.2370,0.0,3.7,164.0,4.7,'11111222,11111222,11111222' 
TCOON,ioos:station:TCOON:005:1,2009-07-08T13:00:00Z,27.6346,-97.2370,0.0,3.9,162.0,5.6,'11111222,11111222,11111222' 
TCOON,ioos:station:TCOON:005:1,2009-07-08T14:00:00Z,27.6346,-97.2370,0.0,4.1,158.0,11.8,'11111222,11111222,11111222' 
TCOON,ioos:station:TCOON:005:1,2009-07-08T15:00:00Z,27.6346,-97.2370,0.0,5.8,159.0,7.4,'11111222,11111222,11111222' 
TCOON,ioos:station:TCOON:005:1,2009-07-08T16:00:00Z,27.6346,-97.2370,0.0,5.5,165.0,7.9,'11111222,11111222,11111222' 
TCOON,ioos:station:TCOON:005:1,2009-07-08T17:00:00Z,27.6346,-97.2370,0.0,6.9,160.0,9.2,'11111222,11111222,11111222' 
TCOON,ioos:station:TCOON:005:1,2009-07-08T18:00:00Z,27.6346,-97.2370,0.0,8.1,140.0,10.4,'11111222,11111222,11111222' 
TCOON,ioos:station:TCOON:005:1,2009-07-08T19:00:00Z,27.6346,-97.2370,0.0,7.4,142.0,12.9,'11111222,11111222,11111222' 
TCOON,ioos:station:TCOON:005:1,2009-07-08T20:00:00Z,27.6346,-97.2370,0.0,9.1,144.0,11.8,'11111222,11111222,11111222' 
TCOON,ioos:station:TCOON:005:1,2009-07-08T21:00:00Z,27.6346,-97.2370,0.0,9.1,137.0,11.9,'11111222,11111222,11111222' 
TCOON,ioos:station:TCOON:005:1,2009-07-08T22:00:00Z,27.6346,-97.2370,0.0,10.2,141.0,12.4,'11111222,11111222,11111222' 
TCOON,ioos:station:TCOON:005:1,2009-07-08T23:00:00Z,27.6346,-97.2370,0.0,6.9,145.0,9.7,'11111222,11111222,11111222' 
TCOON,ioos:station:TCOON:005:1,2009-07-09T00:00:00Z,27.6346,-97.2370,0.0,6.5,148.0,8.5,'11111222,11111222,11111222' 
TCOON,ioos:station:TCOON:005:1,2009-07-09T01:00:00Z,27.6346,-97.2370,0.0,6.1,146.0,8.9,'11111222,11111222,11111222' 
TCOON,ioos:station:TCOON:005:1,2009-07-09T02:00:00Z,27.6346,-97.2370,0.0,5.3,150.0,8.0,'11111222,11111222,11111222' 
TCOON,ioos:station:TCOON:005:1,2009-07-09T03:00:00Z,27.6346,-97.2370,0.0,5.6,149.0,8.1,'11111222,11111222,11111222' 
TCOON,ioos:station:TCOON:005:1,2009-07-09T04:00:00Z,27.6346,-97.2370,0.0,4.2,153.0,5.6,'11111222,11111222,11111222' 
TCOON,ioos:station:TCOON:005:1,2009-07-09T05:00:00Z,27.6346,-97.2370,0.0,5.3,167.0,6.6,'11111222,11111222,11111222' 
TCOON,ioos:station:TCOON:005:1,2009-07-09T06:00:00Z,27.6346,-97.2370,0.0,5.1,168.0,7.0,'11111222,11111222,11111222' 
TCOON,ioos:station:TCOON:005:1,2009-07-09T07:00:00Z,27.6346,-97.2370,0.0,3.9,170.0,5.6,'11111222,11111222,11111222' 
TCOON,ioos:station:TCOON:005:1,2009-07-09T08:00:00Z,27.6346,-97.2370,0.0,4.6,177.0,6.3,'11111222,11111222,11111222' 
TCOON,ioos:station:TCOON:005:1,2009-07-09T09:00:00Z,27.6346,-97.2370,0.0,3.9,170.0,4.9,'11111222,11111222,11111222' 
TCOON,ioos:station:TCOON:005:1,2009-07-09T10:00:00Z,27.6346,-97.2370,0.0,2.8,170.0,3.6,'11111222,11111222,11111222' 
TCOON,ioos:station:TCOON:005:1,2009-07-09T11:00:00Z,27.6346,-97.2370,0.0,3.1,165.0,4.1,'11111222,11111222,11111222' 
TCOON,ioos:station:TCOON:005:1,2009-07-09T12:00:00Z,27.6346,-97.2370,0.0,2.6,154.0,3.6,'11111222,11111222,11111222' 